Tracking 25995 objects as of 19-Aug-2022
HD Live streaming from Space Station
objects crossing your sky now

THOR ABLESTAR DEB

Track THOR ABLESTAR DEB now!
10-day predictions


NORAD ID: 21986
Int'l Code: 1961-015MM
Perigee: 811.2 km
Apogee: 955.9 km
Inclination: 66.9 °
Period: 102.5 minutes
Semi major axis: 7254 km
RCS: 0.0015 m2 (small)
Launch date: June 29, 1961
Source: United States (US)
Launch site: AIR FORCE EASTERN TEST RANGE (AFETR)

Note: This is SATELLITE DEBRIS
aabbcc
Your satellite tracking list
Your tracking list is empty




NASA's NSSDC Master Catalog

Two Line Element Set (TLE):
1 21986U 61015MM  22230.50229267  .00000061  00000-0  83469-4 0  9992
2 21986  66.8766  56.4310 0099692 331.0833  57.1453 14.05029332556642
Source of the keplerian elements: AFSPC